Location: Banff
(51.1667°N, 115.5667°W)
Time: 09:36:52
(UTC+00:00)

Envisat - Pass Details

Date: 03 December 2022
Orbit: 763 x 765 km, 98.2° (Epoch: 28 January)

Event Time Altitude Azimuth Distance (km) Brightness Sun altitude
Rises 12:38:55 0° 11° (N) 3,247 6.3 -25.3°
Reaches altitude 10° 12:41:16 10° 7° (N) 2,316 5.5 -24.9°
Enters shadow 12:44:28 36° 347° (NNW) 1,197 3.8 -24.4°
